| time (UTC) | temp C | wind direction | speed KPH | gust KPH | rain 1hr cm | rain 24hr cm | rain mn cm | humidity % | barometer mb |
| 20260503072604 | 2 | 0 | 6.4 | 16.1 | 0.00 | 0.00 | 0.00 | 61 | 1007.9 |
| 20260503072103 | 2 | 260 | 3.2 | 8.0 | 0.00 | 0.00 | 0.00 | 60 | 1007.9 |
| 20260503071604 | 2 | 244 | 3.2 | 12.9 | 0.00 | 0.00 | 0.00 | 57 | 1007.8 |
| 20260503071104 | 2 | 309 | 3.2 | 12.9 | 0.00 | 0.00 | 0.00 | 57 | 1007.8 |
| 20260503070603 | 3 | 340 | 1.6 | 12.9 | 0.00 | 0.00 | 0.00 | 57 | 1007.7 |
| 20260503070104 | 2 | 319 | 1.6 | 4.8 | 0.00 | 0.00 | 0.00 | 61 | 1007.7 |
| 20260503060104 | 1 | 0 | 1.6 | 8.0 | 0.00 | 0.00 | 0.00 | 66 | 1007.4 |
| 20260503055104 | 1 | 0 | 4.8 | 9.7 | 0.00 | 0.00 | 0.00 | 66 | 1007.3 |
| 20260503054604 | 1 | 0 | 4.8 | 12.9 | 0.00 | 0.00 | 0.00 | 67 | 1007.2 |
| 20260503054104 | 1 | 0 | 6.4 | 11.3 | 0.00 | 0.00 | 0.00 | 67 | 1007.2 |
| 20260503053604 | 1 | 0 | 6.4 | 14.5 | 0.00 | 0.00 | 0.00 | 67 | 1007.2 |
| 20260503053104 | 1 | 0 | 4.8 | 11.3 | 0.00 | 0.00 | 0.00 | 67 | 1007.2 |
| 20260503052604 | 0 | 0 | 1.6 | 4.8 | 0.00 | 0.00 | 0.00 | 67 | 1007.2 |
| 20260503052104 | 0 | 0 | 1.6 | 4.8 | 0.00 | 0.00 | 0.00 | 68 | 1007.2 |
| 20260503051603 | 0 | 0 | 1.6 | 4.8 | 0.00 | 0.00 | 0.00 | 68 | 1007.2 |
| 20260503051103 | 0 | 0 | 3.2 | 9.7 | 0.00 | 0.00 | 0.00 | 68 | 1007.2 |
| 20260503050604 | 0 | 0 | 3.2 | 9.7 | 0.00 | 0.00 | 0.00 | 68 | 1007.3 |
| 20260503050105 | 0 | 0 | 0.0 | 9.7 | 0.00 | 0.00 | 0.00 | 68 | 1007.3 |
| 20260503045603 | 0 | 0 | 4.8 | 11.3 | 0.00 | 0.00 | 0.00 | 68 | 1007.3 |
| 20260503045103 | 0 | 0 | 3.2 | 8.0 | 0.00 | 0.00 | 0.00 | 67 | 1007.3 |
| 20260503044604 | 1 | 0 | 1.6 | 4.8 | 0.00 | 0.00 | 0.00 | 66 | 1007.3 |
| 20260503044104 | 1 | 287 | 1.6 | 8.0 | 0.00 | 0.00 | 0.00 | 67 | 1007.2 |
| 20260503043604 | 0 | 0 | 1.6 | 4.8 | 0.00 | 0.00 | 0.00 | 69 | 1007.2 |
| 20260503043104 | 0 | 0 | 1.6 | 8.0 | 0.00 | 0.00 | 0.00 | 68 | 1007.0 |
| 20260503042604 | 0 | 0 | 3.2 | 9.7 | 0.00 | 0.00 | 0.00 | 68 | 1007.0 |
| 20260503042103 | 0 | 0 | 4.8 | 12.9 | 0.00 | 0.00 | 0.00 | 69 | 1006.8 |
| 20260503041604 | 0 | 0 | 4.8 | 9.7 | 0.00 | 0.00 | 0.00 | 70 | 1006.8 |
| 20260503041103 | 0 | 288 | 1.6 | 3.2 | 0.00 | 0.00 | 0.00 | 71 | 1006.8 |
| 20260503040605 | 0 | 0 | 1.6 | 1.6 | 0.00 | 0.00 | 0.00 | 72 | 1006.8 |
| 20260503040103 | 0 | 0 | 4.8 | 12.9 | 0.00 | 0.00 | 0.00 | 72 | 1006.7 |
| 20260503035604 | 0 | 0 | 4.8 | 19.3 | 0.00 | 0.00 | 0.00 | 72 | 1006.6 |
| 20260503035104 | 0 | 0 | 4.8 | 12.9 | 0.00 | 0.00 | 0.00 | 74 | 1006.6 |
| 20260503034603 | 0 | 0 | 3.2 | 14.5 | 0.00 | 0.00 | 0.00 | 74 | 1006.6 |
| 20260503034103 | 0 | 0 | 8.0 | 16.1 | 0.00 | 0.00 | 0.00 | 76 | 1006.5 |
| 20260503033604 | 0 | 0 | 8.0 | 12.9 | 0.00 | 0.00 | 0.00 | 77 | 1006.6 |
| 20260503033104 | 0 | 0 | 4.8 | 12.9 | 0.00 | 0.00 | 0.00 | 77 | 1006.6 |
| 20260503032604 | 0 | 0 | 4.8 | 14.5 | 0.00 | 0.00 | 0.00 | 77 | 1006.4 |
| 20260503032103 | 0 | 0 | 6.4 | 14.5 | 0.00 | 0.00 | 0.00 | 78 | 1006.4 |
| 20260503031604 | 0 | 0 | 8.0 | 12.9 | 0.00 | 0.00 | 0.00 | 78 | 1006.4 |
| 20260503031104 | 0 | 0 | 6.4 | 14.5 | 0.00 | 0.00 | 0.00 | 79 | 1006.4 |
| 20260503030604 | 0 | 0 | 8.0 | 12.9 | 0.00 | 0.00 | 0.00 | 80 | 1006.4 |
| 20260503030104 | 0 | 0 | 6.4 | 11.3 | 0.00 | 0.00 | 0.00 | 80 | 1006.4 |
| 20260503025603 | 0 | 0 | 4.8 | 11.3 | 0.00 | 0.00 | 0.00 | 81 | 1006.4 |
| 20260503025104 | 0 | 0 | 4.8 | 12.9 | 0.00 | 0.00 | 0.00 | 81 | 1006.4 |
| 20260503024604 | 0 | 0 | 4.8 | 9.7 | 0.00 | 0.00 | 0.00 | 80 | 1006.4 |
| 20260503024103 | 0 | 0 | 1.6 | 14.5 | 0.00 | 0.00 | 0.00 | 79 | 1006.4 |
| 20260503023604 | 0 | 0 | 3.2 | 8.0 | 0.00 | 0.00 | 0.00 | 79 | 1006.4 |
| 20260503023104 | 0 | 0 | 4.8 | 8.0 | 0.00 | 0.00 | 0.00 | 79 | 1006.2 |
| 20260503022604 | 0 | 0 | 3.2 | 12.9 | 0.00 | 0.00 | 0.00 | 81 | 1006.3 |
| 20260503022104 | 0 | 0 | 6.4 | 14.5 | 0.00 | 0.00 | 0.00 | 81 | 1006.2 |
| 20260503021604 | 0 | 0 | 6.4 | 12.9 | 0.00 | 0.00 | 0.00 | 81 | 1006.0 |
| 20260503021103 | 0 | 0 | 3.2 | 9.7 | 0.00 | 0.00 | 0.00 | 80 | 1006.0 |
| 20260503020603 | -1 | 0 | 8.0 | 19.3 | 0.00 | 0.00 | 0.00 | 80 | 1006.0 |
| 20260503020104 | -1 | 0 | 8.0 | 12.9 | 0.00 | 0.00 | 0.00 | 79 | 1006.0 |
| 20260503015604 | -1 | 0 | 6.4 | 9.7 | 0.00 | 0.00 | 0.00 | 79 | 1005.9 |
| 20260503015104 | -1 | 0 | 4.8 | 9.7 | 0.00 | 0.00 | 0.00 | 79 | 1005.9 |
| 20260503014604 | -1 | 0 | 4.8 | 9.7 | 0.00 | 0.00 | 0.00 | 79 | 1005.8 |
| 20260503014104 | -1 | 0 | 3.2 | 12.9 | 0.00 | 0.00 | 0.00 | 79 | 1005.8 |
| 20260503013604 | -1 | 0 | 3.2 | 8.0 | 0.00 | 0.00 | 0.00 | 79 | 1005.8 |
| 20260503013104 | -1 | 0 | 1.6 | 4.8 | 0.00 | 0.00 | 0.00 | 80 | 1005.8 |
| 20260503012604 | -1 | 0 | 1.6 | 4.8 | 0.00 | 0.00 | 0.00 | 80 | 1005.8 |
| 20260503012104 | -1 | 0 | 1.6 | 3.2 | 0.00 | 0.00 | 0.00 | 80 | 1005.7 |
| 20260503011603 | -1 | 0 | 1.6 | 3.2 | 0.00 | 0.00 | 0.00 | 80 | 1005.8 |
| 20260503011104 | -1 | 0 | 1.6 | 3.2 | 0.00 | 0.00 | 0.00 | 80 | 1005.7 |
| 20260503010603 | -1 | 0 | 3.2 | 4.8 | 0.00 | 0.00 | 0.00 | 80 | 1005.7 |
| 20260503010104 | -1 | 0 | 0.0 | 1.6 | 0.00 | 0.00 | 0.00 | 79 | 1005.7 |
| 20260503005604 | -1 | 0 | 0.0 | 4.8 | 0.00 | 0.00 | 0.00 | 78 | 1005.6 |
| 20260503005104 | -1 | 0 | 0.0 | 1.6 | 0.00 | 0.00 | 0.00 | 77 | 1005.6 |
| 20260503004604 | -1 | 0 | 3.2 | 4.8 | 0.00 | 0.00 | 0.00 | 76 | 1005.5 |
| 20260503004104 | 0 | 0 | 1.6 | 8.0 | 0.00 | 0.00 | 0.00 | 77 | 1005.4 |
| 20260503003604 | 0 | 0 | 3.2 | 9.7 | 0.00 | 0.00 | 0.00 | 77 | 1005.3 |
| 20260503003104 | 0 | 0 | 4.8 | 9.7 | 0.00 | 0.00 | 0.00 | 77 | 1005.3 |
| 20260503002603 | 0 | 0 | 8.0 | 14.5 | 0.00 | 0.00 | 0.00 | 76 | 1005.4 |
| 20260503002104 | 0 | 0 | 6.4 | 14.5 | 0.00 | 0.00 | 0.00 | 76 | 1005.4 |
| 20260503001604 | 0 | 0 | 8.0 | 16.1 | 0.00 | 0.00 | 0.00 | 76 | 1005.4 |
| 20260503001104 | 0 | 0 | 6.4 | 16.1 | 0.00 | 0.00 | 0.00 | 77 | 1005.3 |
| 20260503000604 | 0 | 0 | 4.8 | 19.3 | 0.00 | 0.00 | 0.00 | 77 | 1005.2 |
| 20260503000103 | 0 | 0 | 4.8 | 9.7 | 0.00 | 0.00 | 0.00 | 77 | 1005.1 |
| 20260502235604 | 0 | 0 | 6.4 | 11.3 | 0.00 | 0.00 | 0.00 | 77 | 1005.2 |
| 20260502235104 | 0 | 0 | 4.8 | 16.1 | 0.00 | 0.00 | 0.00 | 77 | 1005.1 |
| 20260502234604 | 0 | 0 | 4.8 | 14.5 | 0.00 | 0.00 | 0.00 | 76 | 1005.2 |
| 20260502234106 | 0 | 0 | 4.8 | 12.9 | 0.00 | 0.00 | 0.00 | 76 | 1005.2 |
| 20260502233604 | 0 | 0 | 4.8 | 12.9 | 0.00 | 0.00 | 0.00 | 76 | 1005.2 |
| 20260502233104 | 0 | 0 | 4.8 | 11.3 | 0.00 | 0.00 | 0.00 | 76 | 1005.2 |
| 20260502232604 | 0 | 0 | 8.0 | 19.3 | 0.00 | 0.00 | 0.00 | 76 | 1005.3 |
| 20260502232103 | 0 | 0 | 4.8 | 12.9 | 0.00 | 0.00 | 0.00 | 77 | 1005.3 |
| 20260502231603 | 0 | 0 | 4.8 | 9.7 | 0.00 | 0.00 | 0.00 | 76 | 1005.3 |
| 20260502231103 | 0 | 0 | 3.2 | 4.8 | 0.00 | 0.00 | 0.00 | 76 | 1005.3 |
| 20260502230604 | 0 | 0 | 1.6 | 8.0 | 0.00 | 0.00 | 0.00 | 75 | 1005.3 |
| 20260502230104 | 0 | 0 | 4.8 | 9.7 | 0.00 | 0.00 | 0.00 | 76 | 1005.3 |
| 20260502225604 | 0 | 0 | 4.8 | 11.3 | 0.00 | 0.00 | 0.00 | 76 | 1005.3 |
| 20260502225104 | 0 | 0 | 3.2 | 9.7 | 0.00 | 0.00 | 0.00 | 75 | 1005.3 |
| 20260502224604 | 0 | 0 | 3.2 | 9.7 | 0.00 | 0.00 | 0.00 | 75 | 1005.3 |
| 20260502224104 | 0 | 0 | 4.8 | 11.3 | 0.00 | 0.00 | 0.00 | 75 | 1005.3 |
| 20260502223604 | 0 | 0 | 4.8 | 12.9 | 0.00 | 0.00 | 0.00 | 75 | 1005.3 |
| 20260502223104 | 0 | 0 | 4.8 | 8.0 | 0.00 | 0.00 | 0.00 | 74 | 1005.4 |
| 20260502222603 | 0 | 0 | 4.8 | 12.9 | 0.00 | 0.00 | 0.00 | 74 | 1005.5 |
| 20260502222103 | 0 | 0 | 4.8 | 11.3 | 0.00 | 0.00 | 0.00 | 74 | 1005.5 |
| 20260502221603 | 0 | 0 | 3.2 | 4.8 | 0.00 | 0.00 | 0.00 | 74 | 1005.4 |
| 20260502221107 | 0 | 0 | 3.2 | 11.3 | 0.00 | 0.00 | 0.00 | 74 | 1005.4 |
| 20260502220604 | 0 | 0 | 3.2 | 4.8 | 0.00 | 0.00 | 0.00 | 74 | 1005.3 |
| 20260502220104 | 0 | 0 | 4.8 | 8.0 | 0.00 | 0.00 | 0.00 | 73 | 1005.4 |
| 20260502215603 | 0 | 0 | 3.2 | 9.7 | 0.00 | 0.00 | 0.00 | 72 | 1005.5 |
| 20260502215104 | 0 | 0 | 3.2 | 8.0 | 0.00 | 0.00 | 0.00 | 72 | 1005.6 |
| 20260502214604 | 0 | 0 | 3.2 | 12.9 | 0.00 | 0.00 | 0.00 | 72 | 1005.5 |
| 20260502214104 | 0 | 0 | 4.8 | 12.9 | 0.00 | 0.00 | 0.00 | 72 | 1005.4 |
| 20260502213603 | 0 | 0 | 6.4 | 11.3 | 0.00 | 0.00 | 0.00 | 72 | 1005.4 |
| 20260502213104 | 0 | 0 | 4.8 | 9.7 | 0.00 | 0.00 | 0.00 | 73 | 1005.4 |
| 20260502212604 | 0 | 0 | 3.2 | 11.3 | 0.00 | 0.00 | 0.00 | 73 | 1005.4 |
| 20260502212104 | 0 | 0 | 3.2 | 8.0 | 0.00 | 0.00 | 0.00 | 72 | 1005.4 |
| 20260502211604 | 0 | 0 | 4.8 | 9.7 | 0.00 | 0.00 | 0.00 | 72 | 1005.4 |
| 20260502211104 | 0 | 0 | 4.8 | 9.7 | 0.00 | 0.00 | 0.00 | 72 | 1005.4 |
| 20260502210603 | 0 | 0 | 3.2 | 8.0 | 0.00 | 0.00 | 0.00 | 71 | 1005.5 |
| 20260502210104 | 0 | 0 | 3.2 | 4.8 | 0.00 | 0.00 | 0.00 | 70 | 1005.4 |
| 20260502205604 | 1 | 0 | 3.2 | 9.7 | 0.00 | 0.00 | 0.00 | 69 | 1005.4 |
| 20260502205104 | 1 | 0 | 4.8 | 11.3 | 0.00 | 0.00 | 0.00 | 68 | 1005.4 |
| 20260502204604 | 1 | 0 | 6.4 | 14.5 | 0.00 | 0.00 | 0.00 | 68 | 1005.4 |
| 20260502204104 | 1 | 0 | 4.8 | 12.9 | 0.00 | 0.00 | 0.00 | 68 | 1005.4 |
| 20260502203604 | 1 | 0 | 3.2 | 8.0 | 0.00 | 0.00 | 0.00 | 67 | 1005.5 |
| 20260502203104 | 1 | 0 | 4.8 | 11.3 | 0.00 | 0.00 | 0.00 | 67 | 1005.5 |
| 20260502202604 | 1 | 0 | 8.0 | 16.1 | 0.00 | 0.00 | 0.00 | 67 | 1005.4 |
| 20260502202104 | 1 | 0 | 9.7 | 19.3 | 0.00 | 0.00 | 0.00 | 68 | 1005.2 |
| 20260502201603 | 1 | 0 | 8.0 | 16.1 | 0.00 | 0.00 | 0.00 | 68 | 1005.3 |
| 20260502201103 | 1 | 0 | 11.3 | 25.7 | 0.00 | 0.00 | 0.00 | 68 | 1005.3 |
| 20260502200604 | 1 | 0 | 4.8 | 11.3 | 0.00 | 0.00 | 0.00 | 68 | 1005.3 |
| 20260502200104 | 1 | 0 | 8.0 | 12.9 | 0.00 | 0.00 | 0.00 | 67 | 1005.3 |
| 20260502195604 | 1 | 0 | 8.0 | 19.3 | 0.00 | 0.00 | 0.00 | 66 | 1005.3 |
| 20260502195103 | 2 | 0 | 4.8 | 9.7 | 0.00 | 0.00 | 0.00 | 65 | 1005.3 |
| 20260502194604 | 2 | 0 | 4.8 | 9.7 | 0.00 | 0.00 | 0.00 | 64 | 1005.3 |
| 20260502194104 | 2 | 0 | 4.8 | 9.7 | 0.00 | 0.00 | 0.00 | 63 | 1005.4 |
| 20260502193603 | 2 | 0 | 6.4 | 11.3 | 0.00 | 0.00 | 0.00 | 62 | 1005.4 |
| 20260502193104 | 2 | 0 | 4.8 | 9.7 | 0.00 | 0.00 | 0.00 | 61 | 1005.4 |
| 20260502192604 | 2 | 0 | 4.8 | 9.7 | 0.00 | 0.00 | 0.00 | 60 | 1005.4 |
| 20260502192104 | 2 | 0 | 8.0 | 12.9 | 0.00 | 0.00 | 0.00 | 59 | 1005.2 |
| 20260502191604 | 2 | 0 | 8.0 | 12.9 | 0.00 | 0.00 | 0.00 | 59 | 1005.2 |
| 20260502191104 | 2 | 0 | 8.0 | 14.5 | 0.00 | 0.00 | 0.00 | 58 | 1005.2 |
| 20260502190603 | 2 | 0 | 8.0 | 19.3 | 0.00 | 0.00 | 0.00 | 58 | 1005.1 |
| 20260502190104 | 3 | 0 | 8.0 | 14.5 | 0.00 | 0.00 | 0.00 | 57 | 1005.1 |
| 20260502185604 | 3 | 0 | 6.4 | 19.3 | 0.00 | 0.00 | 0.00 | 56 | 1005.0 |
| 20260502185104 | 3 | 0 | 9.7 | 16.1 | 0.00 | 0.00 | 0.00 | 56 | 1005.0 |
| 20260502184604 | 3 | 0 | 8.0 | 16.1 | 0.00 | 0.00 | 0.00 | 56 | 1005.1 |
| 20260502184104 | 3 | 0 | 6.4 | 14.5 | 0.00 | 0.00 | 0.00 | 55 | 1005.1 |
| 20260502183604 | 3 | 0 | 9.7 | 19.3 | 0.00 | 0.00 | 0.00 | 55 | 1005.0 |
| 20260502183103 | 3 | 0 | 9.7 | 19.3 | 0.00 | 0.00 | 0.00 | 55 | 1004.9 |
| 20260502182603 | 3 | 0 | 9.7 | 19.3 | 0.00 | 0.00 | 0.00 | 54 | 1004.9 |
| 20260502182104 | 3 | 0 | 11.3 | 32.2 | 0.00 | 0.00 | 0.00 | 55 | 1004.9 |
| 20260502181603 | 3 | 0 | 9.7 | 24.1 | 0.00 | 0.00 | 0.00 | 56 | 1004.9 |
| 20260502181103 | 3 | 0 | 11.3 | 20.9 | 0.00 | 0.00 | 0.00 | 55 | 1004.9 |
| 20260502180603 | 4 | 0 | 8.0 | 19.3 | 0.00 | 0.00 | 0.00 | 55 | 1004.9 |
| 20260502180104 | 4 | 0 | 11.3 | 22.5 | 0.00 | 0.00 | 0.00 | 55 | 1004.8 |
| 20260502170103 | 5 | 0 | 11.3 | 20.9 | 0.00 | 0.00 | 0.00 | 51 | 1005.0 |
| 20260502164104 | 5 | 0 | 4.8 | 12.9 | 0.00 | 0.00 | 0.00 | 49 | 1005.0 |
| 20260502163604 | 5 | 258 | 9.7 | 27.4 | 0.00 | 0.00 | 0.00 | 48 | 1005.0 |
| 20260502163104 | 5 | 261 | 12.9 | 25.7 | 0.00 | 0.00 | 0.00 | 49 | 1005.0 |
| 20260502162604 | 5 | 267 | 14.5 | 25.7 | 0.00 | 0.00 | 0.00 | 49 | 1005.0 |
| 20260502162104 | 5 | 258 | 16.1 | 32.2 | 0.00 | 0.00 | 0.00 | 50 | 1005.0 |
| 20260502161603 | 5 | 267 | 12.9 | 24.1 | 0.00 | 0.00 | 0.00 | 50 | 1005.1 |
| 20260502161104 | 5 | 282 | 14.5 | 29.0 | 0.00 | 0.00 | 0.00 | 50 | 1005.1 |
| 20260502160603 | 5 | 256 | 8.0 | 22.5 | 0.00 | 0.00 | 0.00 | 49 | 1005.1 |
| 20260502160103 | 5 | 275 | 11.3 | 25.7 | 0.00 | 0.00 | 0.00 | 48 | 1005.1 |
| 20260502152104 | 6 | 0 | 8.0 | 19.3 | 0.00 | 0.00 | 0.00 | 47 | 1005.0 |
| 20260502151604 | 6 | 0 | 9.7 | 29.0 | 0.00 | 0.00 | 0.00 | 47 | 1005.1 |
| 20260502151103 | 6 | 0 | 8.0 | 27.4 | 0.00 | 0.00 | 0.00 | 47 | 1005.1 |
| 20260502150604 | 6 | 0 | 17.7 | 32.2 | 0.00 | 0.00 | 0.00 | 46 | 1005.0 |
| 20260502150104 | 7 | 0 | 9.7 | 29.0 | 0.00 | 0.00 | 0.00 | 50 | 1005.1 |
| 20260502140104 | 8 | 340 | 8.0 | 27.4 | 0.00 | 0.00 | 0.00 | 42 | 1005.0 |
| 20260502130603 | 9 | 0 | 14.5 | 33.8 | 0.00 | 0.00 | 0.00 | 42 | 1004.8 |
| 20260502130104 | 9 | 267 | 11.3 | 27.4 | 0.00 | 0.00 | 0.00 | 44 | 1004.8 |
| 20260502123604 | 7 | 266 | 4.8 | 20.9 | 0.00 | 0.00 | 0.00 | 55 | 1004.7 |
| 20260502123104 | 7 | 316 | 3.2 | 11.3 | 0.00 | 0.00 | 0.00 | 61 | 1004.5 |
| 20260502122603 | 7 | 319 | 4.8 | 14.5 | 0.00 | 0.00 | 0.00 | 60 | 1004.6 |
| 20260502122104 | 7 | 324 | 4.8 | 9.7 | 0.00 | 0.00 | 0.00 | 60 | 1004.6 |
| 20260502121604 | 7 | 313 | 6.4 | 11.3 | 0.00 | 0.00 | 0.00 | 59 | 1004.5 |
| 20260502121104 | 8 | 307 | 6.4 | 22.5 | 0.00 | 0.00 | 0.00 | 57 | 1004.5 |
| 20260502120603 | 9 | 278 | 4.8 | 25.7 | 0.00 | 0.00 | 0.00 | 52 | 1004.4 |
| 20260502120104 | 9 | 264 | 14.5 | 33.8 | 0.00 | 0.00 | 0.00 | 47 | 1004.2 |
| 20260502115604 | 9 | 292 | 9.7 | 27.4 | 0.00 | 0.00 | 0.00 | 48 | 1004.2 |
| 20260502115104 | 9 | 246 | 8.0 | 22.5 | 0.00 | 0.00 | 0.00 | 51 | 1004.2 |
| 20260502114104 | 8 | 15 | 1.6 | 9.7 | 0.00 | 0.00 | 0.00 | 58 | 1004.1 |
| 20260502113604 | 9 | 326 | 1.6 | 14.5 | 0.00 | 0.00 | 0.00 | 58 | 1004.3 |
| 20260502113104 | 9 | 349 | 8.0 | 16.1 | 0.00 | 0.00 | 0.00 | 58 | 1004.3 |
| 20260502112604 | 9 | 282 | 4.8 | 14.5 | 0.00 | 0.00 | 0.00 | 56 | 1004.2 |
| 20260502112103 | 9 | 330 | 9.7 | 24.1 | 0.00 | 0.00 | 0.00 | 53 | 1004.2 |
| 20260502111604 | 8 | 0 | 17.7 | 32.2 | 0.00 | 0.00 | 0.00 | 55 | 1004.1 |
| 20260502111104 | 9 | 257 | 11.3 | 25.7 | 0.00 | 0.00 | 0.00 | 55 | 1004.0 |
| 20260502110604 | 10 | 263 | 14.5 | 32.2 | 0.00 | 0.00 | 0.00 | 55 | 1004.0 |
| 20260502110104 | 10 | 275 | 16.1 | 32.2 | 0.00 | 0.00 | 0.00 | 53 | 1003.9 |
| 20260502105603 | 10 | 273 | 11.3 | 20.9 | 0.00 | 0.00 | 0.00 | 57 | 1003.9 |
| 20260502105104 | 10 | 264 | 16.1 | 32.2 | 0.00 | 0.00 | 0.00 | 53 | 1003.8 |
| 20260502104604 | 10 | 256 | 17.7 | 32.2 | 0.00 | 0.00 | 0.00 | 54 | 1003.8 |
| 20260502104104 | 10 | 254 | 9.7 | 22.5 | 0.00 | 0.00 | 0.00 | 61 | 1003.8 |
| 20260502103604 | 8 | 241 | 9.7 | 24.1 | 0.00 | 0.00 | 0.00 | 65 | 1003.7 |
| 20260502103104 | 8 | 237 | 6.4 | 12.9 | 0.00 | 0.00 | 0.00 | 66 | 1003.7 |
| 20260502102603 | 10 | 268 | 4.8 | 14.5 | 0.00 | 0.00 | 0.00 | 64 | 1003.8 |
| 20260502102104 | 10 | 272 | 4.8 | 25.7 | 0.00 | 0.00 | 0.00 | 63 | 1003.8 |
| 20260502101103 | 8 | 0 | 16.1 | 29.0 | 0.00 | 0.00 | 0.00 | 63 | 1003.6 |
| 20260502100603 | 8 | 0 | 17.7 | 29.0 | 0.00 | 0.00 | 0.00 | 63 | 1003.6 |
| 20260502100104 | 8 | 0 | 11.3 | 29.0 | 0.00 | 0.00 | 0.00 | 65 | 1003.6 |
| 20260502091104 | 7 | 0 | 12.9 | 22.5 | 0.00 | 0.00 | 0.00 | 69 | 1003.3 |
| 20260502090603 | 7 | 0 | 9.7 | 25.7 | 0.00 | 0.00 | 0.00 | 69 | 1003.5 |
| 20260502090104 | 8 | 255 | 11.3 | 20.9 | 0.00 | 0.00 | 0.00 | 69 | 1003.4 |
| 20260502080103 | 7 | 0 | 9.7 | 19.3 | 0.00 | 0.00 | 0.00 | 69 | 1003.2 |